CZ-6A DEB

Satellite information

Favourite Embed

Satellite Type and Status

DEBRISIN ORBIT

Key statistics

Satellite CZ-6A DEB at a glance.

Uptime

494

Days in orbit

Revolutions

≈ 15.5

Per day

Orbit

LEO

Low Earth Orbit

Inclination

88.8

Latest

Satellite identification and parameters

Extended collection of information and parameters for CZ-6A DEB.

Object identification

Identified? True

Debris? True

Object name: CZ-6A DEB

International designator: 2024-140YU

Object number (NORAD): 61427

Object ID (CCSDS): 61427

Country: PEOPLES REPUBLIC OF CHINA (PRC)

Current information (Y/N): Y

RCS size: SMALL

Orbital parameters

Period: 92.761 minutes

Inclination: 88.7827 deg

SMA: 6787.914 km

Apoapsis: 440.081 km

Periapsis: 379.477 km

RAAN: 276.5538 deg

Eccentricy: 0.00446412

Argument of periapsis: 72.7958 deg

Mean anomaly: 287.8184 deg

Mean motion: 15.52380947 rev/day

Mean motion (dot): 0.00845997 rev/day2

B* drag term: 0.01227578 1/REarth

Two-line elements (TLE)

Creation date: Dec. 12, 2025, 10:14 a.m.

Reference frame: TEME

Reference center: EARTH

Epoch: Dec. 12, 2025, 5:31 a.m. UTC

TLE line 0: 0 CZ-6A DEB

TLE line 1: 1 61427U 24140YU 25346.22999303 .00845997 00000-0 12276-1 0 9999

TLE line 2: 2 61427 88.7827 276.5538 0044641 72.7958 287.8184 15.52380947 71331

Live tracking on map

Real-time ground track for satellite CZ-6A DEB.

In-orbit conjunctions

A list of the most updated potential collisions computed for object CZ-6A DEB.

Target Orbit TCA Probability of collision Miss distance Type
THORAD AGENA D DEB LEO 2025-01-30 18:09:37 0.0003307141 734.0 (m) DEBRIS
RUBIN 4/SL-8 SSO 2024-12-20 03:21:55 0.0003343094 300.0 (m) PAYLOAD
IRIDIUM 33 DEB LEO 2024-11-25 08:50:24 0.0001195443 358.0 (m) DEBRIS
FENGYUN 1C DEB SSO 2024-10-04 23:39:10 0.0001322743 975.0 (m) DEBRIS
FENGYUN 1C DEB SSO 2024-10-02 00:39:37 0.0005309629 486.0 (m) DEBRIS

Associated space launch

18 Low Earth Orbit communication satellites with Ku, Q and V band payloads for the G60 constellation operated by Shanghai Spacecom Satellite Technology (SSST) with funding backed by the Shanghai local government. Initial constellation will consist of 1296 satellites by 2027 with long term plans to expand it to 12000 satellites.

CZ-6A DEB was lifted into orbit during the mission ‘Long March 6A | G60 Polar Group 01’, on board a Long March 6A space rocket.

The launch took place on Aug. 6, 2024, 6:42 a.m. from Launch Complex 9A.

For more information about the launch, click the button.

Launch to space Long March 6A | G60 Polar Group 01
Long March 6A | G60 Polar Group 01

Agency: N/A

Status: Launch Successful

Launch date: Aug. 6, 2024, 6:42 a.m. UTC

Rocket: Long March 6A

Launch pad: Launch Complex 9A

Location: Taiyuan Satellite Launch Center, People's Republic of China

...

Latest news about this satellite

News about space launch
Brightness of first Chinese broadband constellation satellites alarms astronomers

The first satellites of a Chinese broadband constellation are significantly brighter than those of Western systems, posing a new challenge for astronomers.

News about space launch
Chinese rocket stage breaks up into cloud of more than 700 pieces of space debris

HELSINKI — A Chinese Long March 6A rocket’s upper stage has fragmented into a cloud of over 700 pieces of space debris, adding to concerns about long-term orbital safety. China […]

News about space launch
China's Thousand Sails Megaconstellation Kicks Off with Dangerous Debris Field

China's Thousand Sails Megaconstellation Kicks Off with Dangerous Debris Field


Newsletter sign-up

Weekly statistics, charts and insights to help you stay on top of the space industry.